"Pseudo-MPEC" for A11y70v

Created 2026 Feb 16 7:35:02 UT using Find_Orb

Click here for an explanation of pseudo-MPECs

 
 Astrometry: 
     A11y70v*0C2026 02 04.63666416 01 48.701-24 34 00.30   ~29Bo 17.97oVNEOCPT08
     A11y70v 0C2026 02 04.63712116 01 48.619-24 33 58.86   ~29Bo 18.26oVNEOCPT08
     A11y70v 0C2026 02 04.65348616 01 48.638-24 33 29.30   ~29Bo 18.11oVNEOCPT08
     A11y70v 0C2026 02 04.65394316 01 48.691-24 33 28.01   ~29Bo 18.36oVNEOCPT08
     A11y70v 0C2026 02 04.65943716 01 48.557-24 33 16.63   ~29Bo 18.23oVNEOCPT08
     A11y70v 0C2026 02 04.66400616 01 48.331-24 33 09.14   ~29Bo 16.69oVNEOCPT08

Station data:
(T08) ATLAS-MLO, Mauna Loa  (N19.536150 W155.576050)  US/Hawaii.  Observers
   L. Denneau, R. Siverd, J. Tonry, H. Weiland. Measurers L. Denneau, N.
   Erasmus, A. Fitzsimmons, J. Robinson, R. Siverd, J. Tonry, H. Weiland.
   0.5-m f/2.0 Schmidt + CCD.

Orbital elements:  A11y70v
   Perihelion 2026 Jan 25.247433 TT =  5:56:18.2 (JD 2461065.747433)
Epoch 2026 Feb  5.0 TT = JDT 2461076.5   Earth MOID: 0.0019      AutoNEOCP
M  10.592684872                     (J2000 ecliptic)
n   0.985130790    Peri.  346.168561
a   1.000322691    Node   139.072449
e   0.01677832     Incl.    0.477473
P   1.000/365.427d H   25.15    G   0.15   q 0.983538949  Q 1.017106433
From 6 observations 2026 Feb. 4 (39.4 min); mean residual 0".66
Residuals in arcseconds: 
260204 T08  .44+  .54-    260204 T08  .04-  .16+    260204 T08  .52+  .88+    
260204 T08  .76-  .14+    260204 T08  .78+  .56+    260204 T08  .80-  1.2-    

Ephemerides (geocentric):
Date (UTC) HH   RA             Dec           delta  r     elong  mag
---- --------  ------------   ------------  ------ ------ -----  ---
2026 02 16 08  17 28 34.324   -13 15 58.75  .00713 .98502  65.5 18.8
2026 02 16 09  17 28 52.642   -13 13 25.27  .00713 .98503  65.4 18.8
2026 02 16 10  17 29 10.967   -13 10 51.63  .00713 .98504  65.4 18.8
2026 02 16 11  17 29 29.297   -13 08 17.86  .00713 .98504  65.4 18.8
2026 02 16 12  17 29 47.633   -13 05 43.94  .00712 .98505  65.3 18.8
2026 02 16 13  17 30 05.975   -13 03 09.88  .00712 .98506  65.3 18.8
2026 02 16 14  17 30 24.323   -13 00 35.67  .00712 .98506  65.3 18.8
2026 02 16 15  17 30 42.678   -12 58 01.31  .00712 .98507  65.3 18.8
2026 02 16 16  17 31 01.038   -12 55 26.81  .00712 .98507  65.2 18.8
2026 02 16 17  17 31 19.405   -12 52 52.16  .00712 .98508  65.2 18.8
2026 02 16 18  17 31 37.779   -12 50 17.37  .00711 .98509  65.2 18.8
2026 02 16 19  17 31 56.159   -12 47 42.43  .00711 .98509  65.2 18.8
2026 02 16 20  17 32 14.545   -12 45 07.33  .00711 .98510  65.1 18.8
2026 02 16 21  17 32 32.938   -12 42 32.09  .00711 .98510  65.1 18.8
2026 02 16 22  17 32 51.338   -12 39 56.70  .00711 .98511  65.1 18.8
2026 02 16 23  17 33 09.745   -12 37 21.16  .00711 .98512  65.1 18.8
2026 02 17 00  17 33 28.159   -12 34 45.47  .00710 .98512  65.0 18.8
2026 02 17 01  17 33 46.580   -12 32 09.63  .00710 .98513  65.0 18.8
2026 02 17 02  17 34 05.008   -12 29 33.64  .00710 .98513  65.0 18.8
2026 02 17 03  17 34 23.443   -12 26 57.49  .00710 .98514  64.9 18.8
2026 02 17 04  17 34 41.886   -12 24 21.19  .00710 .98515  64.9 18.8
2026 02 17 05  17 35 00.335   -12 21 44.74  .00710 .98515  64.9 18.8
2026 02 17 06  17 35 18.793   -12 19 08.13  .00709 .98516  64.9 18.8
2026 02 17 07  17 35 37.258   -12 16 31.37  .00709 .98517  64.8 18.8
2026 02 17 08  17 35 55.730   -12 13 54.45  .00709 .98517  64.8 18.8
2026 02 17 09  17 36 14.211   -12 11 17.37  .00709 .98518  64.8 18.8
2026 02 17 10  17 36 32.699   -12 08 40.15  .00709 .98518  64.7 18.8
2026 02 17 11  17 36 51.195   -12 06 02.76  .00708 .98519  64.7 18.8
2026 02 17 12  17 37 09.699   -12 03 25.21  .00708 .98520  64.7 18.9
2026 02 17 13  17 37 28.211   -12 00 47.51  .00708 .98520  64.7 18.9
2026 02 17 14  17 37 46.732   -11 58 09.65  .00708 .98521  64.6 18.9
2026 02 17 15  17 38 05.260   -11 55 31.63  .00708 .98521  64.6 18.9
2026 02 17 16  17 38 23.797   -11 52 53.46  .00707 .98522  64.6 18.9
2026 02 17 17  17 38 42.343   -11 50 15.12  .00707 .98523  64.6 18.9
2026 02 17 18  17 39 00.897   -11 47 36.62  .00707 .98523  64.5 18.9
2026 02 17 19  17 39 19.460   -11 44 57.96  .00707 .98524  64.5 18.9
2026 02 17 20  17 39 38.032   -11 42 19.14  .00707 .98525  64.5 18.9
2026 02 17 21  17 39 56.612   -11 39 40.15  .00706 .98525  64.4 18.9
2026 02 17 22  17 40 15.201   -11 37 01.00  .00706 .98526  64.4 18.9
2026 02 17 23  17 40 33.800   -11 34 21.69  .00706 .98527  64.4 18.9
2026 02 18 00  17 40 52.407   -11 31 42.22  .00706 .98527  64.4 18.9
2026 02 18 01  17 41 11.024   -11 29 02.58  .00705 .98528  64.3 18.9
2026 02 18 02  17 41 29.650   -11 26 22.78  .00705 .98528  64.3 18.9
2026 02 18 03  17 41 48.286   -11 23 42.81  .00705 .98529  64.3 18.9
2026 02 18 04  17 42 06.931   -11 21 02.68  .00705 .98530  64.2 18.9
2026 02 18 05  17 42 25.586   -11 18 22.38  .00705 .98530  64.2 18.9
2026 02 18 06  17 42 44.250   -11 15 41.91  .00704 .98531  64.2 18.9
2026 02 18 07  17 43 02.924   -11 13 01.28  .00704 .98532  64.2 18.9